User: anonymous   Login
Location: Dürabuch
(48.2640°N, 11.2185°E)
Time: 05:36:21
(UTC+00:00)
Language:

Nadezhda 1 Rocket - Orbit

View from above orbital plane
View from above orbital plane
View from above satellite
View from above satellite

Ground track
Ground track

The orbit data is extracted from the following two-line orbital elements,

1 20104U 89050B   25196.54680990  .00000112  00000-0  96732-4 0  9998
2 20104  82.9578 141.7119 0042880 197.7722 162.1938 13.77581599810531
Epoch (UTC): 15 July 2025 13:07:24
Eccentricity: 0.0042880
inclination: 82.9578°
perigee height: 941 km
apogee height: 1004 km
right ascension of ascending node: 141.7119°
argument of perigee: 197.7722°
revolutions per day: 13.77581599
mean anomaly at epoch: 162.1938°
orbit number at epoch: 81053

The dashed part of the orbit path shows where the satellite is in the earth's shadow,  

DLR